Weather History for White Plains, NY

Change the Weather History Date:

Tuesday, October 16, 2012

  Actual Average Record
Temperature  
Mean Temperature 50 °F -  
Max Temperature 57 °F 59 °F 75 °F (2008)
Min Temperature 42 °F 42 °F 33 °F (1978)
Degree Days  
Heating Degree Days 16    
Moisture  
Dew Point 38 °F    
Average Humidity 62    
Maximum Humidity 84    
Minimum Humidity 45    
Precipitation  
Precipitation 0.00 in - - ()
Sea Level Pressure  
Sea Level Pressure 29.77 in    
Wind  
Wind Speed 13 mph (NW)    
Max Wind Speed 24 mph    
Max Gust Speed 33 mph    
Visibility 10 miles    
Events      
Averages and records for this station are not official NWS values.
T = Trace of Precipitation, MM = Missing Value Source: NWS Daily Summary

Daily Weather History Graph

Daily Weather History Graph

Search for Another Location

Airport:

Trip Planner

Search our weather history database for the weather conditions in past years. The results will help you decide how hot, cold, wet, or windy it might be!

Date:

Astronomy

Oct. 16, 2012 Rise Set
Actual Time 7:07 AM EDT 6:11 PM EDT
Civil Twilight 6:40 AM EDT 6:39 PM EDT
Nautical Twilight 6:08 AM EDT 7:11 PM EDT
Astronomical Twilight 5:36 AM EDT 7:43 PM EDT
Moon 8:28 AM EDT (10/16) 6:53 PM EDT (10/16)
Length of Visible Light 11h 59m
Length of Day
11h 03m
New Moon, 2% of the Moon is Illuminated
Oct 16
New Moon
Oct 21
First Quarter
Oct 29
Full
Nov 6
Last Quarter
Nov 13
New

Hourly Weather History & Observations

Time (EDT) Temp. Windchill Dew Point Humidity Pressure Visibility Wind Dir Wind Speed Gust Speed Precip Events Conditions
12:56 AM 57.9 °F - 53.1 °F 84% 29.66 in 10.0 mi WNW 8.1 mph - N/A   Overcast
1:56 AM 55.9 °F - 48.0 °F 75% 29.66 in 10.0 mi NW 17.3 mph 23.0 mph N/A   Mostly Cloudy
2:56 AM 54.0 °F - 45.0 °F 72% 29.64 in 10.0 mi NNW 18.4 mph 23.0 mph N/A   Mostly Cloudy
3:56 AM 53.1 °F - 42.1 °F 66% 29.65 in 10.0 mi NW 15.0 mph - N/A   Clear
4:56 AM 52.0 °F - 39.9 °F 63% 29.66 in 10.0 mi NW 13.8 mph 25.3 mph N/A   Clear
5:56 AM 51.8 °F - 39.2 °F 62% 29.68 in 10.0 mi NW 13.8 mph - N/A   Clear
6:56 AM 48.2 °F - 37.4 °F 66% 29.71 in 10.0 mi NW 12.7 mph 26.5 mph N/A   Clear
7:56 AM 50.0 °F - 37.0 °F 61% 29.74 in 10.0 mi NW 20.7 mph 27.6 mph N/A   Scattered Clouds
8:56 AM 50.0 °F - 35.1 °F 57% 29.76 in 10.0 mi NW 13.8 mph 27.6 mph N/A   Scattered Clouds
9:56 AM 52.0 °F - 36.0 °F 54% 29.77 in 10.0 mi NW 19.6 mph 31.1 mph N/A   Partly Cloudy
10:56 AM 53.1 °F - 37.0 °F 55% 29.77 in 10.0 mi NW 21.9 mph 28.8 mph N/A   Scattered Clouds
11:56 AM 53.6 °F - 37.4 °F 54% 29.77 in 10.0 mi NW 24.2 mph 32.2 mph N/A   Scattered Clouds
12:56 PM 55.0 °F - 36.0 °F 49% 29.76 in 10.0 mi NW 20.7 mph 33.4 mph N/A   Partly Cloudy
1:56 PM 57.0 °F - 37.0 °F 47% 29.76 in 10.0 mi WNW 13.8 mph 24.2 mph N/A   Partly Cloudy
2:56 PM 57.0 °F - 37.0 °F 47% 29.77 in 10.0 mi WNW 15.0 mph 24.2 mph N/A   Partly Cloudy
3:56 PM 55.9 °F - 36.0 °F 47% 29.77 in 10.0 mi WNW 15.0 mph 25.3 mph N/A   Clear
4:56 PM 55.9 °F - 35.1 °F 45% 29.79 in 10.0 mi NW 13.8 mph - N/A   Clear
5:56 PM 53.1 °F - 36.0 °F 52% 29.81 in 10.0 mi WNW 6.9 mph - N/A   Clear
6:56 PM 52.0 °F - 36.0 °F 54% 29.84 in 10.0 mi West 4.6 mph - N/A   Clear
7:56 PM 48.0 °F - 36.0 °F 63% 29.87 in 10.0 mi West 3.5 mph - N/A   Clear
8:56 PM 46.9 °F - 36.0 °F 66% 29.88 in 10.0 mi West 3.5 mph - N/A   Clear
9:56 PM 43.0 °F - 37.0 °F 80% 29.90 in 10.0 mi Calm Calm - N/A   Clear
10:56 PM 42.1 °F 37.7 °F 36.0 °F 79% 29.91 in 10.0 mi NW 6.9 mph - N/A   Clear
11:56 PM 42.1 °F - 37.0 °F 82% 29.93 in 10.0 mi Calm Calm - N/A   Clear